Location: Dilsberg
(49.3983°N, 8.8354°E)
Time: 20:00:01
(UTC+00:00)

Cosmos 1346 Rocket - Pass Details

Date: 19 May 2025
Orbit: 485 x 499 km, 81.2° (Epoch: 20 June)

Event Time Altitude Azimuth Distance (km) Brightness Sun altitude
Rises 21:06:14 0° 338° (NNW) 2,587 8.0 -14.4°
Reaches altitude 10° 21:08:34 10° 326° (NNW) 1,696 6.7 -14.6°
Maximum altitude 21:11:44 27° 268° (W) 970 4.4 -14.9°
Enters shadow 21:14:47 11° 210° (SSW) 1,641 5.0 -15.2°
